Regional Weather Roundup
Issued by NWS

Home | Current Version | Previous Version | Text Only | Print | Product List | Glossary On
Versions: 1 2 3 4 5 6 7 8 9 10 11 12 13 14 15 16 17 18 19 20 21 22 23 24 25 26 27 28
000
ASUS43 KMPX 170310
RWRMN
WEATHER ROUNDUP FOR MINNESOTA
NATIONAL WEATHER SERVICE TWIN CITIES/CHANHASSEN MN
1000 PM CDT WED JUN 16 2021


NOTE: "FAIR" INDICATES FEW OR NO CLOUDS BELOW 12,000 FEET WITH NO
SIGNIFICANT WEATHER AND/OR OBSTRUCTIONS TO VISIBILITY. N/A MEANS
CURRENT SKY AND/OR WEATHER CONDITIONS ARE NOT AVAILABLE.

MNZ060>063-068>070-170400-
   Twin Cities Metro

CITY           SKY/WX    TMP DP  RH WIND       PRES   REMARKS
TWIN CITIES    PTCLDY    80  56  43 SE7       29.90R
ST PAUL        CLEAR     79  57  46 SE7       29.91R
CRYSTAL        CLEAR     79  55  43 SE3       29.89R
BLAINE         MOCLDY    81  54  39 SE5       29.91R
LAKEVILLE      CLEAR     77  52  41 SE3       29.90R
EDEN PRAIRIE   PTCLDY    80  54  40 SE8       29.89R
SOUTH ST PAUL  CLEAR     80  54  40 SE3       29.91R
LAKE ELMO      FAIR      75  55  50 SE5       29.93R
$$
MNZ001>005-007-008-013>017-022>024-027-028-170400-
   Northwest Minnesota

CITY           SKY/WX    TMP DP  RH WIND       PRES   REMARKS
BEMIDJI        CLEAR     74  58  58 SE8       29.87S
HALLOCK        CLEAR     77  46  33 NW8       29.81R
ROSEAU         PTCLDY    75  63  64 W8        29.81R
WARROAD        CLEAR     73  66  78 S9        29.80S
CROOKSTON      CLEAR     81  59  47 SW7       29.81R
FOSSTON        CLEAR     72  57  60 S6        29.85S
DETROIT LAKES  CLEAR     77  59  53 S6        29.87R
MOORHEAD       CLEAR     81  55  41 SE5       29.83R
PARK RAPIDS    CLOUDY    78  58  49 SE8       29.88R
MAHNOMEN         N/A     75  59  58 S6        29.85R
$$
MNZ006-009>011-018-025>026-170400-
   North Central Minnesota

CITY           SKY/WX    TMP DP  RH WIND       PRES   REMARKS
BAUDETTE       MOCLDY    70  62  76 SE8       29.83F
INTL FALLS     CLOUDY    66  61  84 SE6       29.85F
BIG FORK       PTCLDY    66  61  82 S5        29.95F
LONGVILLE      CLEAR     72  61  68 CALM      29.90S
CRANE LAKE       N/A     70  61  73 SW5       29.89S
ORR            CLOUDY    64  61  88 SE6       29.88R
COOK           RAIN      68  61  77 S5        29.92R
WALKER         CLOUDY    76  58  53 SE5       29.88S
$$
MNZ012-019>021-037-170400-
   Northeast Minnesota

CITY           SKY/WX    TMP DP  RH WIND       PRES   REMARKS
ELY            RAIN      70  50  49 S8        29.91F
HIBBING        MOCLDY    65  60  84 SE8       29.93F
DULUTH HARBOR  MOCLDY    63  52  67 E9        29.98R
TWO HARBORS    CLOUDY    63  43  48 N3        29.98S
SILVER BAY       N/A     61  37  41 CALM      29.98R
GRAND MARAIS     N/A     55  45  68 CALM      29.97R
G MARAIS ARPRT MOCLDY    55  41  58 CALM      30.01R
$$
MNZ029>031-032-039>041-046>048-054>057-064-170400-
   West Central Minnesota

CITY           SKY/WX    TMP DP  RH WIND       PRES   REMARKS
FERGUS FALLS   CLEAR     79  61  53 SE8       29.82R
WHEATON        CLEAR     82  61  47 S8        29.83R
MORRIS         MOCLDY    79  57  47 SE8       29.85R
ALEXANDRIA     PTCLDY    78  58  49 SE8       29.89R
WADENA         PTCLDY    77  61  57 CALM      29.88R
GLENWOOD       CLEAR     73  61  64 E5        29.88S
APPLETON       PTCLDY    81  61  50 SE3       29.82S
BENSON         PTCLDY    79  61  53 SE3       29.85R
ORTONVILLE     MOCLDY    81  64  57 CALM      29.83R
MADISON        PTCLDY    81  66  61 CALM      29.84R
WILLMAR        FAIR      81  57  44 SE5       29.89R
$$
MNZ033>034-036-042>043-049>051-058-059-170400-
   Central Minnesota

CITY           SKY/WX    TMP DP  RH WIND       PRES   REMARKS
ST CLOUD       PTCLDY    76  56  49 E7        29.88S
SAUK CENTRE    FAIR      77  58  51 E5        29.89R
PAYNESVILLE    CLEAR     79  59  50 SE5       29.88S
AITKIN         PTCLDY    66  57  72 CALM      29.92R
BRAINERD       CLEAR     75  56  51 SE5       29.90F
STAPLES        CLEAR     79  59  50 CALM      29.88S
LONG PRAIRIE   FAIR      72  59  64 E5        29.90R
LITTLE FALLS   CLEAR     75  48  38 E5        29.89S
CAMP RIPLEY    FAIR      75  58  55 SE7       29.89F
LITCHFIELD     PTCLDY    81  57  44 SE5       29.87F
BUFFALO        PTCLDY    76  56  48 MISG      29.90R
HUTCHINSON     CLEAR     76  60  58 E5        29.88S
$$
MNZ037-044-045-052-053-170400-
   East Central Minnesota

CITY           SKY/WX    TMP DP  RH WIND       PRES   REMARKS
PRINCETON      CLEAR     75  57  53 E3        29.91R
MORA           PTCLDY    70  57  64 CALM      29.93S
CAMBRIDGE      CLEAR     79  57  47 CALM      29.92R
RUSH CITY      PTCLDY    72  56  57 SE3       29.93R
MOOSE LAKE     PTCLDY    66  52  59 NE7       29.95R
HINCKLEY       CLEAR     73  57  56 CALM      29.93R
CLOQUET        MOCLDY    63  46  55 NE5       29.97R
$$
MNZ071>073-080-081-089-090-097-098-170400-
   Southwest Minnesota

CITY           SKY/WX    TMP DP  RH WIND       PRES   REMARKS
MONTEVIDEO     PTCLDY    81  57  44 CALM      29.84R
GRANITE FALLS  PTCLDY    85  62  45 E6        29.85R
CANBY          PTCLDY    78  65  64 CALM      29.85R
REDWOOD FALLS  MOCLDY    82  59  45 SE10      29.83S
OLIVIA         MOCLDY    82  57  42 SE8       29.84S
PIPESTONE      CLEAR     82  55  39 S16       29.86S
WINDOM         MOCLDY    81  63  54 S10       29.84S
JACKSON        CLOUDY    81  61  50 SW13G20   29.85S
TRACY          PTCLDY    82  53  36 SW15      29.82S
SLAYTON        PTCLDY    75  44  33 S9        29.87R
$$
MNZ065>067-074>077-082>085-091>093-170400-
   South Central Minnesota

CITY           SKY/WX    TMP DP  RH WIND       PRES   REMARKS
NEW ULM        PTCLDY    79  55  44 SE7       29.85F
ST JAMES       MOCLDY    81  57  44 SE9       29.85S
GLENCOE        PTCLDY    78  57  48 SE6       29.87F
FARIBAULT      PTCLDY    79  54  41 SE7       29.91S
OWATONNA       PTCLDY    79  55  44 SE8       29.92R
ALBERT LEA     CLOUDY    81  55  41 S10       29.92R
$$
MNZ078>079-086>088-094>096-170400-
   Southeast Minnesota

CITY           SKY/WX    TMP DP  RH WIND       PRES   REMARKS
ROCHESTER      PTCLDY    73  55  53 SE9       29.95S
RED WING       CLEAR     79  54  41 SE5       29.91R
STANTON        CLEAR     79  53  39 S5        29.90R
DODGE CENTER     N/A     73  52  46 SE7       29.95R
WINONA         PTCLDY    73  57  56 CALM      29.96R
AUSTIN         MOCLDY    79  55  44 S8        29.94R
$$
ABBREVIATIONS USED IN REMARKS
   TC - TEMPERATURES IN CELSIUS
  WCI - WIND CHILL INDEX
   HX - HEAT INDEX
  VSB - VISIBILITY
$$



USA.gov is the U.S. government's official web portal to all federal, state and local government web resources and services.